Year,Month,Day,Hour,Minute,Value (Times are PST for temperature in C)
2009,06,05,00,00,23.60
2009,06,05,00,01,23.40
2009,06,05,00,02,23.40
2009,06,05,00,03,23.40
2009,06,05,00,04,23.30
2009,06,05,00,05,23.30
2009,06,05,00,06,23.30
2009,06,05,00,07,23.30
2009,06,05,00,08,23.20
2009,06,05,00,09,23.20
2009,06,05,00,10,23.20
2009,06,05,00,11,23.20
2009,06,05,00,12,23.10
2009,06,05,00,13,23.10
2009,06,05,00,14,23.10
2009,06,05,00,15,23.10
2009,06,05,00,16,23.10
2009,06,05,00,17,23.20
2009,06,05,00,18,23.20
2009,06,05,00,19,23.30
2009,06,05,00,20,23.30
2009,06,05,00,21,23.30
2009,06,05,00,22,23.30
2009,06,05,00,23,23.30
2009,06,05,00,24,23.30
2009,06,05,00,25,23.30
2009,06,05,00,26,23.30
2009,06,05,00,27,23.30
2009,06,05,00,28,23.30
2009,06,05,00,29,23.30
2009,06,05,00,30,23.30
2009,06,05,00,31,23.30
2009,06,05,00,32,23.30
2009,06,05,00,33,23.30
2009,06,05,00,34,23.30
2009,06,05,00,35,23.30
2009,06,05,00,36,23.30
2009,06,05,00,37,23.30
2009,06,05,00,38,23.30
2009,06,05,00,39,23.30
2009,06,05,00,40,23.40
2009,06,05,00,41,23.40
2009,06,05,00,42,23.40
2009,06,05,00,43,23.40
2009,06,05,00,44,23.40
2009,06,05,00,45,23.40
2009,06,05,00,46,23.40
2009,06,05,00,47,23.40
2009,06,05,00,48,23.40
2009,06,05,00,49,23.40
2009,06,05,00,50,23.40
2009,06,05,00,51,23.40
2009,06,05,00,52,23.40
2009,06,05,00,53,23.40
2009,06,05,00,54,23.50
2009,06,05,00,55,23.60
2009,06,05,00,56,23.60
2009,06,05,00,57,23.60
2009,06,05,00,58,23.60
2009,06,05,00,59,23.60
2009,06,05,01,00,23.50
2009,06,05,01,01,23.40
2009,06,05,01,02,23.40
2009,06,05,01,03,23.40
2009,06,05,01,04,23.40
2009,06,05,01,05,23.40
2009,06,05,01,06,23.30
2009,06,05,01,07,23.30
2009,06,05,01,08,23.30
2009,06,05,01,09,23.30
2009,06,05,01,10,23.20
2009,06,05,01,11,23.20
2009,06,05,01,12,23.20
2009,06,05,01,13,23.10
2009,06,05,01,14,23.10
2009,06,05,01,15,23.10
2009,06,05,01,16,23.10
2009,06,05,01,17,23.00
2009,06,05,01,18,22.90
2009,06,05,01,19,22.90
2009,06,05,01,20,22.90
2009,06,05,01,21,22.90
2009,06,05,01,22,22.80
2009,06,05,01,23,22.70
2009,06,05,01,24,22.60
2009,06,05,01,25,22.50
2009,06,05,01,26,22.50
2009,06,05,01,27,22.30
2009,06,05,01,28,22.20
2009,06,05,01,29,22.10
2009,06,05,01,30,22.00
2009,06,05,01,31,21.90
2009,06,05,01,32,21.80
2009,06,05,01,33,21.60
2009,06,05,01,34,21.50
2009,06,05,01,35,21.30
2009,06,05,01,36,21.20
2009,06,05,01,37,21.00
2009,06,05,01,38,20.80
2009,06,05,01,39,20.60
2009,06,05,01,40,20.40
2009,06,05,01,41,20.10
2009,06,05,01,42,19.80
2009,06,05,01,43,19.50
2009,06,05,01,44,19.20
2009,06,05,01,45,18.90
2009,06,05,01,46,18.70
2009,06,05,01,47,18.60
2009,06,05,01,48,18.40
2009,06,05,01,49,18.30
2009,06,05,01,50,18.20
2009,06,05,01,51,18.20
2009,06,05,01,52,18.10
2009,06,05,01,53,18.10
2009,06,05,01,54,18.10
2009,06,05,01,55,18.10
2009,06,05,01,56,18.20
2009,06,05,01,57,18.20
2009,06,05,01,58,18.20
2009,06,05,01,59,18.20
2009,06,05,02,00,18.30
2009,06,05,02,01,18.30
2009,06,05,02,02,18.30
2009,06,05,02,03,18.40
2009,06,05,02,04,18.40
2009,06,05,02,05,18.40
2009,06,05,02,06,18.40
2009,06,05,02,07,18.30
2009,06,05,02,08,18.10
2009,06,05,02,09,17.90
2009,06,05,02,10,17.80
2009,06,05,02,11,17.70
2009,06,05,02,12,17.70
2009,06,05,02,13,17.60
2009,06,05,02,14,17.60
2009,06,05,02,15,17.50
2009,06,05,02,16,17.50
2009,06,05,02,17,17.50
2009,06,05,02,18,17.40
2009,06,05,02,19,17.40
2009,06,05,02,20,17.30
2009,06,05,02,21,17.30
2009,06,05,02,22,17.20
2009,06,05,02,23,17.00
2009,06,05,02,24,17.00
2009,06,05,02,25,17.00
2009,06,05,02,26,16.90
2009,06,05,02,27,16.90
2009,06,05,02,28,16.80
2009,06,05,02,29,16.80
2009,06,05,02,30,16.80
2009,06,05,02,31,16.70
2009,06,05,02,32,16.70
2009,06,05,02,33,16.50
2009,06,05,02,34,16.40
2009,06,05,02,35,16.20
2009,06,05,02,36,16.10
2009,06,05,02,37,16.00
2009,06,05,02,38,15.90
2009,06,05,02,39,15.80
2009,06,05,02,40,15.80
2009,06,05,02,41,15.70
2009,06,05,02,42,15.70
2009,06,05,02,43,15.70
2009,06,05,02,44,15.60
2009,06,05,02,45,15.60
2009,06,05,02,46,15.50
2009,06,05,02,47,15.50
2009,06,05,02,48,15.40
2009,06,05,02,49,15.30
2009,06,05,02,50,15.30
2009,06,05,02,51,15.20
2009,06,05,02,52,15.10
2009,06,05,02,53,15.00
2009,06,05,02,54,15.00
2009,06,05,02,55,14.80
2009,06,05,02,56,14.70
2009,06,05,02,57,14.60
2009,06,05,02,58,14.60
2009,06,05,02,59,14.50
2009,06,05,03,00,14.40
2009,06,05,03,01,14.30
2009,06,05,03,02,14.30
2009,06,05,03,03,14.20
2009,06,05,03,04,14.20
2009,06,05,03,05,14.20
2009,06,05,03,06,14.20
2009,06,05,03,07,14.20
2009,06,05,03,08,14.20
2009,06,05,03,09,14.20
2009,06,05,03,10,14.20
2009,06,05,03,11,14.20
2009,06,05,03,12,14.20
2009,06,05,03,13,14.20
2009,06,05,03,14,14.20
2009,06,05,03,15,14.20
2009,06,05,03,16,14.20
2009,06,05,03,17,14.20
2009,06,05,03,18,14.20
2009,06,05,03,19,14.20
2009,06,05,03,20,14.10
2009,06,05,03,21,14.00
2009,06,05,03,22,13.90
2009,06,05,03,23,13.80
2009,06,05,03,24,13.80
2009,06,05,03,25,13.70
2009,06,05,03,26,13.70
2009,06,05,03,27,13.60
2009,06,05,03,28,13.50
2009,06,05,03,29,13.50
2009,06,05,03,30,13.50
2009,06,05,03,31,13.40
2009,06,05,03,32,13.40
2009,06,05,03,33,13.40
2009,06,05,03,34,13.30
2009,06,05,03,35,13.30
2009,06,05,03,36,13.30
2009,06,05,03,37,13.30
2009,06,05,03,38,13.30
2009,06,05,03,39,13.30
2009,06,05,03,40,13.30
2009,06,05,03,41,13.30
2009,06,05,03,42,13.30
2009,06,05,03,43,13.20
2009,06,05,03,44,13.20
2009,06,05,03,45,13.20
2009,06,05,03,46,13.10
2009,06,05,03,47,13.10
2009,06,05,03,48,13.10
2009,06,05,03,49,13.10
2009,06,05,03,50,13.00
2009,06,05,03,51,13.00
2009,06,05,03,52,13.00
2009,06,05,03,53,13.00
2009,06,05,03,54,13.00
2009,06,05,03,55,13.00
2009,06,05,03,56,13.00
2009,06,05,03,57,13.00
2009,06,05,03,58,12.90
2009,06,05,03,59,12.90
2009,06,05,04,00,12.90
2009,06,05,04,01,12.90
2009,06,05,04,02,12.90
2009,06,05,04,03,13.00
2009,06,05,04,04,13.10
2009,06,05,04,05,13.20
2009,06,05,04,06,13.30
2009,06,05,04,07,13.40
2009,06,05,04,08,13.50
2009,06,05,04,09,13.50
2009,06,05,04,10,13.60
2009,06,05,04,11,13.70
2009,06,05,04,12,13.80
2009,06,05,04,13,13.90
2009,06,05,04,14,14.00
2009,06,05,04,15,14.20
2009,06,05,04,16,14.20
2009,06,05,04,17,14.40
2009,06,05,04,18,14.50
2009,06,05,04,19,14.70
2009,06,05,04,20,14.80
2009,06,05,04,21,15.00
2009,06,05,04,22,15.10
2009,06,05,04,23,15.20
2009,06,05,04,24,15.30
2009,06,05,04,25,15.40
2009,06,05,04,26,15.50
2009,06,05,04,27,15.60
2009,06,05,04,28,15.70
2009,06,05,04,29,15.80
2009,06,05,04,30,15.90
2009,06,05,04,31,16.00
2009,06,05,04,32,16.10
2009,06,05,04,33,16.10
2009,06,05,04,34,16.10
2009,06,05,04,35,16.20
2009,06,05,04,36,16.20
2009,06,05,04,37,16.20
2009,06,05,04,38,16.30
2009,06,05,04,39,16.30
2009,06,05,04,40,16.30
2009,06,05,04,41,16.30
2009,06,05,04,42,16.30
2009,06,05,04,43,16.40
2009,06,05,04,44,16.40
2009,06,05,04,45,16.40
2009,06,05,04,46,16.40
2009,06,05,04,47,16.50
2009,06,05,04,48,16.60
2009,06,05,04,49,16.60
2009,06,05,04,50,16.70
2009,06,05,04,51,16.70
2009,06,05,04,52,16.70
2009,06,05,04,53,16.70
2009,06,05,04,54,16.80
2009,06,05,04,55,16.80
2009,06,05,04,56,16.90
2009,06,05,04,57,16.90
2009,06,05,04,58,16.90
2009,06,05,04,59,16.90
2009,06,05,05,00,16.90
2009,06,05,05,01,16.90
2009,06,05,05,02,17.00
2009,06,05,05,03,17.00
2009,06,05,05,04,17.00
2009,06,05,05,05,17.10
2009,06,05,05,06,17.10
2009,06,05,05,07,17.20
2009,06,05,05,08,17.20
2009,06,05,05,09,17.30
2009,06,05,05,10,17.30
2009,06,05,05,11,17.30
2009,06,05,05,12,17.30
2009,06,05,05,13,17.30
2009,06,05,05,14,17.30
2009,06,05,05,15,17.30
2009,06,05,05,16,17.30
2009,06,05,05,17,17.30
2009,06,05,05,18,17.30
2009,06,05,05,19,17.30
2009,06,05,05,20,17.30
2009,06,05,05,21,17.30
2009,06,05,05,22,17.30
2009,06,05,05,23,17.30
2009,06,05,05,24,17.30
2009,06,05,05,25,17.30
2009,06,05,05,26,17.30
2009,06,05,05,27,17.30
2009,06,05,05,28,17.30
2009,06,05,05,29,17.30
2009,06,05,05,30,17.30
2009,06,05,05,31,17.30
2009,06,05,05,32,17.30
2009,06,05,05,33,17.30
2009,06,05,05,34,17.20
2009,06,05,05,35,17.20
2009,06,05,05,36,17.20
2009,06,05,05,37,17.20
2009,06,05,05,38,17.20
2009,06,05,05,39,17.10
2009,06,05,05,40,17.10
2009,06,05,05,41,17.10
2009,06,05,05,42,17.10
2009,06,05,05,43,17.10
2009,06,05,05,44,17.10
2009,06,05,05,45,17.10
2009,06,05,05,46,17.10
2009,06,05,05,47,17.00
2009,06,05,05,48,17.00
2009,06,05,05,49,17.00
2009,06,05,05,50,17.00
2009,06,05,05,51,17.00
2009,06,05,05,52,17.00
2009,06,05,05,53,16.90
2009,06,05,05,54,16.90
2009,06,05,05,55,16.80
2009,06,05,05,56,16.80
2009,06,05,05,57,16.70
2009,06,05,05,58,16.70
2009,06,05,05,59,16.70
2009,06,05,06,00,16.60
2009,06,05,06,01,16.50
2009,06,05,06,02,16.40
2009,06,05,06,03,16.40
2009,06,05,06,04,16.30
2009,06,05,06,05,16.30
2009,06,05,06,06,16.20
2009,06,05,06,07,16.20
2009,06,05,06,08,16.10
2009,06,05,06,09,16.10
2009,06,05,06,10,16.10
2009,06,05,06,11,16.10
2009,06,05,06,12,16.00
2009,06,05,06,13,15.90
2009,06,05,06,14,15.90
2009,06,05,06,15,15.90
2009,06,05,06,16,15.80
2009,06,05,06,17,15.80
2009,06,05,06,18,15.80
2009,06,05,06,19,15.90
2009,06,05,06,20,15.90
2009,06,05,06,21,15.90
2009,06,05,06,22,15.90
2009,06,05,06,23,15.90
2009,06,05,06,24,16.00
2009,06,05,06,25,16.10
2009,06,05,06,26,16.10
2009,06,05,06,27,16.10
2009,06,05,06,28,16.10
2009,06,05,06,29,16.20
2009,06,05,06,30,16.20
2009,06,05,06,31,16.30
2009,06,05,06,32,16.30
2009,06,05,06,33,16.30
2009,06,05,06,34,16.40
2009,06,05,06,35,16.40
2009,06,05,06,36,16.40
2009,06,05,06,37,16.40
2009,06,05,06,38,16.40
2009,06,05,06,39,16.40
2009,06,05,06,40,16.40
2009,06,05,06,41,16.40
2009,06,05,06,42,16.40
2009,06,05,06,43,16.50
2009,06,05,06,44,16.60
2009,06,05,06,45,16.60
2009,06,05,06,46,16.60
2009,06,05,06,47,16.60
2009,06,05,06,48,16.60
2009,06,05,06,49,16.60
2009,06,05,06,50,16.60
2009,06,05,06,51,16.60
2009,06,05,06,52,16.60
2009,06,05,06,53,16.60
2009,06,05,06,54,16.60
2009,06,05,06,55,16.60
2009,06,05,06,56,16.60
2009,06,05,06,57,16.60
2009,06,05,06,58,16.60
2009,06,05,06,59,16.60
2009,06,05,07,00,16.70
2009,06,05,07,01,16.70
2009,06,05,07,02,16.70
2009,06,05,07,03,16.70
2009,06,05,07,04,16.70
2009,06,05,07,05,16.70
2009,06,05,07,06,16.70
2009,06,05,07,07,16.70
2009,06,05,07,08,16.70
2009,06,05,07,09,16.70
2009,06,05,07,10,16.70
2009,06,05,07,11,16.70
2009,06,05,07,12,16.70
2009,06,05,07,13,16.70
2009,06,05,07,14,16.70
2009,06,05,07,15,16.70
2009,06,05,07,16,16.70
2009,06,05,07,17,16.70
2009,06,05,07,18,16.70
2009,06,05,07,19,16.70
2009,06,05,07,20,16.70
2009,06,05,07,21,16.70
2009,06,05,07,22,16.70
2009,06,05,07,23,16.70
2009,06,05,07,24,16.70
2009,06,05,07,25,16.70
2009,06,05,07,26,16.70
2009,06,05,07,27,16.70
2009,06,05,07,28,16.70
2009,06,05,07,29,16.70
2009,06,05,07,30,16.70
2009,06,05,07,31,16.70
2009,06,05,07,32,16.70
2009,06,05,07,33,16.70
2009,06,05,07,34,16.70
2009,06,05,07,35,16.80
2009,06,05,07,36,16.80
2009,06,05,07,37,16.80
2009,06,05,07,38,16.80
2009,06,05,07,39,16.80
2009,06,05,07,40,16.80
2009,06,05,07,41,16.80
2009,06,05,07,42,16.80
2009,06,05,07,43,16.80
2009,06,05,07,44,16.90
2009,06,05,07,45,16.90
2009,06,05,07,46,16.90
2009,06,05,07,47,16.90
2009,06,05,07,48,17.00
2009,06,05,07,49,17.00
2009,06,05,07,50,17.00
2009,06,05,07,51,17.10
2009,06,05,07,52,17.10
2009,06,05,07,53,17.10
2009,06,05,07,54,17.20
2009,06,05,07,55,17.20
2009,06,05,07,56,17.20
2009,06,05,07,57,17.20
2009,06,05,07,58,17.30
2009,06,05,07,59,17.30
2009,06,05,08,00,17.30
2009,06,05,08,01,17.30
2009,06,05,08,02,17.30
2009,06,05,08,03,17.30
2009,06,05,08,04,17.30
2009,06,05,08,05,17.30
2009,06,05,08,06,17.30
2009,06,05,08,07,17.30
2009,06,05,08,08,17.30
2009,06,05,08,09,17.30
2009,06,05,08,10,17.30
2009,06,05,08,11,17.30
2009,06,05,08,12,17.40
2009,06,05,08,13,17.40
2009,06,05,08,14,17.40
2009,06,05,08,15,17.50
2009,06,05,08,16,17.50
2009,06,05,08,17,17.50
2009,06,05,08,18,17.50
2009,06,05,08,19,17.50
2009,06,05,08,20,17.60
2009,06,05,08,21,17.60
2009,06,05,08,22,17.60
2009,06,05,08,23,17.60
2009,06,05,08,24,17.60
2009,06,05,08,25,17.60
2009,06,05,08,26,17.70
2009,06,05,08,27,17.70
2009,06,05,08,28,17.80
2009,06,05,08,29,17.80
2009,06,05,08,30,17.80
2009,06,05,08,31,17.90
2009,06,05,08,32,17.90
2009,06,05,08,33,17.90
2009,06,05,08,34,17.80
2009,06,05,08,35,17.80
2009,06,05,08,36,17.70
2009,06,05,08,37,17.80
2009,06,05,08,38,17.70
2009,06,05,08,39,17.70
2009,06,05,08,40,17.70
2009,06,05,08,41,17.70
2009,06,05,08,42,17.70
2009,06,05,08,43,17.70
2009,06,05,08,44,17.60
2009,06,05,08,45,17.60
2009,06,05,08,46,17.60
2009,06,05,08,47,17.60
2009,06,05,08,48,17.70
2009,06,05,08,49,17.70
2009,06,05,08,50,17.70
2009,06,05,08,51,17.70
2009,06,05,08,52,17.80
2009,06,05,08,53,17.80
2009,06,05,08,54,17.80
2009,06,05,08,55,17.80
2009,06,05,08,56,17.80
2009,06,05,08,57,17.80
2009,06,05,08,58,17.90
2009,06,05,08,59,17.90
2009,06,05,09,00,17.90
2009,06,05,09,01,17.90
2009,06,05,09,02,17.90
2009,06,05,09,03,17.90
2009,06,05,09,04,18.00
2009,06,05,09,05,18.10
2009,06,05,09,06,18.10
2009,06,05,09,07,18.20
2009,06,05,09,08,18.20
2009,06,05,09,09,18.20
2009,06,05,09,10,18.30
2009,06,05,09,11,18.30
2009,06,05,09,12,18.30
2009,06,05,09,13,18.30
2009,06,05,09,14,18.20
2009,06,05,09,15,18.20
2009,06,05,09,16,18.20
2009,06,05,09,17,18.30
2009,06,05,09,18,18.30
2009,06,05,09,19,18.30
2009,06,05,09,20,18.30
2009,06,05,09,21,18.40
2009,06,05,09,22,18.40
2009,06,05,09,23,18.50
2009,06,05,09,24,18.60
2009,06,05,09,25,18.60
2009,06,05,09,26,18.70
2009,06,05,09,27,18.80
2009,06,05,09,28,18.90
2009,06,05,09,29,18.90
2009,06,05,09,30,19.00
2009,06,05,09,31,19.00
2009,06,05,09,32,18.90
2009,06,05,09,33,18.90
2009,06,05,09,34,18.90
2009,06,05,09,35,18.90
2009,06,05,09,36,18.90
2009,06,05,09,37,18.90
2009,06,05,09,38,18.90
2009,06,05,09,39,18.90
2009,06,05,09,40,18.90
2009,06,05,09,41,18.90
2009,06,05,09,42,18.90
2009,06,05,09,43,18.90
2009,06,05,09,44,18.90
2009,06,05,09,45,19.00
2009,06,05,09,46,19.10
2009,06,05,09,47,19.10
2009,06,05,09,48,19.20
2009,06,05,09,49,19.30
2009,06,05,09,50,19.30
2009,06,05,09,51,19.40
2009,06,05,09,52,19.40
2009,06,05,09,53,19.40
2009,06,05,09,54,19.40
2009,06,05,09,55,19.40
2009,06,05,09,56,19.40
2009,06,05,09,57,19.40
2009,06,05,09,58,19.40
2009,06,05,09,59,19.40
2009,06,05,10,00,19.40
2009,06,05,10,01,19.40
2009,06,05,10,02,19.40
2009,06,05,10,03,19.50
2009,06,05,10,04,19.50
2009,06,05,10,05,19.60
2009,06,05,10,06,19.70
2009,06,05,10,07,19.70
2009,06,05,10,08,19.70
2009,06,05,10,09,19.80
2009,06,05,10,10,19.90
2009,06,05,10,11,19.90
2009,06,05,10,12,19.90
2009,06,05,10,13,19.90
2009,06,05,10,14,20.10
2009,06,05,10,15,20.10
2009,06,05,10,16,20.20
2009,06,05,10,17,20.20
2009,06,05,10,18,20.30
2009,06,05,10,19,20.20
2009,06,05,10,20,20.20
2009,06,05,10,21,20.00
2009,06,05,10,22,19.90
2009,06,05,10,23,19.90
2009,06,05,10,24,19.80
2009,06,05,10,25,19.60
2009,06,05,10,26,19.40
2009,06,05,10,27,19.30
2009,06,05,10,28,19.30
2009,06,05,10,29,19.40
2009,06,05,10,30,19.50
2009,06,05,10,31,19.60
2009,06,05,10,32,19.70
2009,06,05,10,33,19.80
2009,06,05,10,34,20.00
2009,06,05,10,35,20.10
2009,06,05,10,36,20.20
2009,06,05,10,37,20.10
2009,06,05,10,38,20.00
2009,06,05,10,39,19.90
2009,06,05,10,40,19.80
2009,06,05,10,41,19.70
2009,06,05,10,42,19.70
2009,06,05,10,43,19.70
2009,06,05,10,44,19.80
2009,06,05,10,45,19.80
2009,06,05,10,46,19.90
2009,06,05,10,47,19.90
2009,06,05,10,48,19.90
2009,06,05,10,49,19.70
2009,06,05,10,50,19.70
2009,06,05,10,51,19.60
2009,06,05,10,52,19.60
2009,06,05,10,53,19.60
2009,06,05,10,54,19.60
2009,06,05,10,55,19.50
2009,06,05,10,56,19.50
2009,06,05,10,57,19.50
2009,06,05,10,58,19.40
2009,06,05,10,59,19.40
2009,06,05,11,00,19.50
2009,06,05,11,01,19.50
2009,06,05,11,02,19.40
2009,06,05,11,03,19.30
2009,06,05,11,04,19.20
2009,06,05,11,05,19.10
2009,06,05,11,06,19.00
2009,06,05,11,07,19.00
2009,06,05,11,08,19.10
2009,06,05,11,09,19.10
2009,06,05,11,10,19.20
2009,06,05,11,11,19.40
2009,06,05,11,12,19.50
2009,06,05,11,13,19.70
2009,06,05,11,14,19.70
2009,06,05,11,15,19.60
2009,06,05,11,16,19.50
2009,06,05,11,17,19.30
2009,06,05,11,18,19.30
2009,06,05,11,19,19.20
2009,06,05,11,20,19.20
2009,06,05,11,21,19.20
2009,06,05,11,22,19.20
2009,06,05,11,23,19.20
2009,06,05,11,24,19.30
2009,06,05,11,25,19.30
2009,06,05,11,26,19.30
2009,06,05,11,27,19.40
2009,06,05,11,28,19.40
2009,06,05,11,29,19.40
2009,06,05,11,30,19.50
2009,06,05,11,31,19.40
2009,06,05,11,32,19.60
2009,06,05,11,33,19.70
2009,06,05,11,34,19.70
2009,06,05,11,35,19.80
2009,06,05,11,36,19.90
2009,06,05,11,37,19.90
2009,06,05,11,38,19.80
2009,06,05,11,39,19.70
2009,06,05,11,40,19.80
2009,06,05,11,41,19.70
2009,06,05,11,42,19.60
2009,06,05,11,43,19.50
2009,06,05,11,44,19.40
2009,06,05,11,45,19.30
2009,06,05,11,46,19.10
2009,06,05,11,47,19.10
2009,06,05,11,48,19.10
2009,06,05,11,49,19.10
2009,06,05,11,50,19.10
2009,06,05,11,51,19.10
2009,06,05,11,52,19.10
2009,06,05,11,53,19.10
2009,06,05,11,54,19.10
2009,06,05,11,55,19.10
2009,06,05,11,56,19.10
2009,06,05,11,57,19.10
2009,06,05,11,58,19.30
2009,06,05,11,59,19.30
2009,06,05,12,00,19.30
2009,06,05,12,01,19.40
2009,06,05,12,02,19.50
2009,06,05,12,03,19.60
2009,06,05,12,04,19.60
2009,06,05,12,05,19.50
2009,06,05,12,06,19.50
2009,06,05,12,07,19.60
2009,06,05,12,08,19.60
2009,06,05,12,09,19.70
2009,06,05,12,10,19.80
2009,06,05,12,11,19.90
2009,06,05,12,12,20.00
2009,06,05,12,13,20.20
2009,06,05,12,14,20.20
2009,06,05,12,15,20.20
2009,06,05,12,16,20.20
2009,06,05,12,17,20.00
2009,06,05,12,18,19.90
2009,06,05,12,19,19.70
2009,06,05,12,20,19.60
2009,06,05,12,21,19.40
2009,06,05,12,22,19.40
2009,06,05,12,23,19.40
2009,06,05,12,24,19.40
2009,06,05,12,25,19.40
2009,06,05,12,26,19.50
2009,06,05,12,27,19.50
2009,06,05,12,28,19.60
2009,06,05,12,29,19.80
2009,06,05,12,30,20.00
2009,06,05,12,31,20.20
2009,06,05,12,32,20.20
2009,06,05,12,33,20.20
2009,06,05,12,34,20.30
2009,06,05,12,35,20.30
2009,06,05,12,36,20.30
2009,06,05,12,37,20.20
2009,06,05,12,38,20.20
2009,06,05,12,39,20.20
2009,06,05,12,40,20.20
2009,06,05,12,41,20.20
2009,06,05,12,42,20.20
2009,06,05,12,43,20.20
2009,06,05,12,44,20.20
2009,06,05,12,45,20.30
2009,06,05,12,46,20.30
2009,06,05,12,47,20.40
2009,06,05,12,48,20.50
2009,06,05,12,49,20.60
2009,06,05,12,50,20.50
2009,06,05,12,51,20.40
2009,06,05,12,52,20.50
2009,06,05,12,53,20.50
2009,06,05,12,54,20.50
2009,06,05,12,55,20.50
2009,06,05,12,56,20.60
2009,06,05,12,57,20.60
2009,06,05,12,58,20.80
2009,06,05,12,59,20.80
2009,06,05,13,00,20.80
2009,06,05,13,01,20.80
2009,06,05,13,02,20.90
2009,06,05,13,03,20.80
2009,06,05,13,04,20.70
2009,06,05,13,05,20.70
2009,06,05,13,06,20.70
2009,06,05,13,07,20.80
2009,06,05,13,08,20.80
2009,06,05,13,09,20.80
2009,06,05,13,10,20.80
2009,06,05,13,11,21.00
2009,06,05,13,12,21.00
2009,06,05,13,13,21.10
2009,06,05,13,14,21.10
2009,06,05,13,15,21.20
2009,06,05,13,16,21.30
2009,06,05,13,17,21.20
2009,06,05,13,18,21.00
2009,06,05,13,19,21.00
2009,06,05,13,20,21.00
2009,06,05,13,21,20.90
2009,06,05,13,22,20.80
2009,06,05,13,23,20.70
2009,06,05,13,24,20.70
2009,06,05,13,25,20.60
2009,06,05,13,26,20.50
2009,06,05,13,27,20.50
2009,06,05,13,28,20.50
2009,06,05,13,29,20.60
2009,06,05,13,30,20.60
2009,06,05,13,31,20.60
2009,06,05,13,32,20.50
2009,06,05,13,33,20.30
2009,06,05,13,34,20.30
2009,06,05,13,35,20.20
2009,06,05,13,36,20.20
2009,06,05,13,37,20.30
2009,06,05,13,38,20.30
2009,06,05,13,39,20.40
2009,06,05,13,40,20.40
2009,06,05,13,41,20.50
2009,06,05,13,42,20.40
2009,06,05,13,43,20.40
2009,06,05,13,44,20.20
2009,06,05,13,45,20.00
2009,06,05,13,46,19.90
2009,06,05,13,47,19.90
2009,06,05,13,48,20.10
2009,06,05,13,49,20.10
2009,06,05,13,50,20.10
2009,06,05,13,51,20.00
2009,06,05,13,52,20.00
2009,06,05,13,53,20.10
2009,06,05,13,54,20.20
2009,06,05,13,55,20.30
2009,06,05,13,56,20.20
2009,06,05,13,57,20.20
2009,06,05,13,58,20.10
2009,06,05,13,59,19.90
2009,06,05,14,00,19.90
2009,06,05,14,01,19.90
2009,06,05,14,02,20.00
2009,06,05,14,03,20.10
2009,06,05,14,04,20.10
2009,06,05,14,05,20.20
2009,06,05,14,06,20.20
2009,06,05,14,07,20.20
2009,06,05,14,08,20.30
2009,06,05,14,09,20.30
2009,06,05,14,10,20.40
2009,06,05,14,11,20.40
2009,06,05,14,12,20.40
2009,06,05,14,13,20.30
2009,06,05,14,14,20.20
2009,06,05,14,15,20.40
2009,06,05,14,16,20.50
2009,06,05,14,17,20.50
2009,06,05,14,18,20.40
2009,06,05,14,19,20.30
2009,06,05,14,20,20.40
2009,06,05,14,21,20.40
2009,06,05,14,22,20.40
2009,06,05,14,23,20.30
2009,06,05,14,24,20.30
2009,06,05,14,25,20.30
2009,06,05,14,26,20.30
2009,06,05,14,27,20.20
2009,06,05,14,28,20.10
2009,06,05,14,29,19.90
2009,06,05,14,30,19.80
2009,06,05,14,31,19.60
2009,06,05,14,32,19.50
2009,06,05,14,33,19.60
2009,06,05,14,34,19.60
2009,06,05,14,35,19.60
2009,06,05,14,36,19.60
2009,06,05,14,37,19.50
2009,06,05,14,38,19.50
2009,06,05,14,39,19.40
2009,06,05,14,40,19.40
2009,06,05,14,41,19.50
2009,06,05,14,42,19.50
2009,06,05,14,43,19.60
2009,06,05,14,44,19.70
2009,06,05,14,45,19.80
2009,06,05,14,46,20.00
2009,06,05,14,47,20.20
2009,06,05,14,48,20.30
2009,06,05,14,49,20.40
2009,06,05,14,50,20.50
2009,06,05,14,51,20.60
2009,06,05,14,52,20.60
2009,06,05,14,53,20.60
2009,06,05,14,54,20.60
2009,06,05,14,55,20.60
2009,06,05,14,56,20.70
2009,06,05,14,57,20.60
2009,06,05,14,58,20.50
2009,06,05,14,59,20.40
2009,06,05,15,00,20.30
2009,06,05,15,01,20.40
2009,06,05,15,02,20.50
2009,06,05,15,03,20.70
2009,06,05,15,04,20.80
2009,06,05,15,05,20.90
2009,06,05,15,06,21.00
2009,06,05,15,07,21.00
2009,06,05,15,08,21.00
2009,06,05,15,09,21.00
2009,06,05,15,10,21.00
2009,06,05,15,11,21.00
2009,06,05,15,12,21.00
2009,06,05,15,13,21.00
2009,06,05,15,14,21.00
2009,06,05,15,15,21.10
2009,06,05,15,16,21.10
2009,06,05,15,17,21.10
2009,06,05,15,18,21.10
2009,06,05,15,19,21.00
2009,06,05,15,20,20.80
2009,06,05,15,21,20.80
2009,06,05,15,22,20.80
2009,06,05,15,23,20.80
2009,06,05,15,24,20.60
2009,06,05,15,25,20.50
2009,06,05,15,26,20.50
2009,06,05,15,27,20.50
2009,06,05,15,28,20.60
2009,06,05,15,29,20.70
2009,06,05,15,30,20.70
2009,06,05,15,31,20.70
2009,06,05,15,32,20.70
2009,06,05,15,33,20.70
2009,06,05,15,34,20.80
2009,06,05,15,35,20.90
2009,06,05,15,36,21.00
2009,06,05,15,37,21.10
2009,06,05,15,38,21.10
2009,06,05,15,39,21.00
2009,06,05,15,40,21.00
2009,06,05,15,41,20.90
2009,06,05,15,42,20.80
2009,06,05,15,43,20.80
2009,06,05,15,44,20.80
2009,06,05,15,45,20.80
2009,06,05,15,46,20.70
2009,06,05,15,47,20.50
2009,06,05,15,48,20.40
2009,06,05,15,49,20.20
2009,06,05,15,50,20.10
2009,06,05,15,51,20.00
2009,06,05,15,52,20.00
2009,06,05,15,53,20.00
2009,06,05,15,54,20.10
2009,06,05,15,55,20.20
2009,06,05,15,56,20.20
2009,06,05,15,57,20.20
2009,06,05,15,58,20.60
2009,06,05,15,59,21.00
2009,06,05,16,00,21.20
2009,06,05,16,01,21.30
2009,06,05,16,02,21.50
2009,06,05,16,03,21.60
2009,06,05,16,04,21.70
2009,06,05,16,05,21.70
2009,06,05,16,06,21.80
2009,06,05,16,07,21.70
2009,06,05,16,08,21.80
2009,06,05,16,09,21.80
2009,06,05,16,10,21.80
2009,06,05,16,11,21.90
2009,06,05,16,12,21.90
2009,06,05,16,13,21.90
2009,06,05,16,14,21.70
2009,06,05,16,15,21.50
2009,06,05,16,16,21.30
2009,06,05,16,17,21.30
2009,06,05,16,18,21.30
2009,06,05,16,19,21.40
2009,06,05,16,20,21.50
2009,06,05,16,21,21.60
2009,06,05,16,22,21.70
2009,06,05,16,23,21.80
2009,06,05,16,24,21.90
2009,06,05,16,25,22.00
2009,06,05,16,26,22.00
2009,06,05,16,27,21.90
2009,06,05,16,28,21.70
2009,06,05,16,29,21.50
2009,06,05,16,30,21.30
2009,06,05,16,31,21.10
2009,06,05,16,32,20.90
2009,06,05,16,33,20.90
2009,06,05,16,34,21.00
2009,06,05,16,35,21.10
2009,06,05,16,36,21.30
2009,06,05,16,37,21.50
2009,06,05,16,38,21.70
2009,06,05,16,39,21.90
2009,06,05,16,40,22.00
2009,06,05,16,41,22.10
2009,06,05,16,42,22.10
2009,06,05,16,43,22.10
2009,06,05,16,44,22.10
2009,06,05,16,45,21.90
2009,06,05,16,46,21.80
2009,06,05,16,47,21.90
2009,06,05,16,48,21.90
2009,06,05,16,49,21.80
2009,06,05,16,50,21.80
2009,06,05,16,51,21.60
2009,06,05,16,52,21.60
2009,06,05,16,53,21.60
2009,06,05,16,54,21.60
2009,06,05,16,55,21.70
2009,06,05,16,56,21.90
2009,06,05,16,57,22.10
2009,06,05,16,58,22.30
2009,06,05,16,59,22.60
2009,06,05,17,00,22.70
2009,06,05,17,01,22.80
2009,06,05,17,02,22.80
2009,06,05,17,03,22.80
2009,06,05,17,04,22.90
2009,06,05,17,05,22.90
2009,06,05,17,06,22.90
2009,06,05,17,07,22.90
2009,06,05,17,08,23.00
2009,06,05,17,09,23.10
2009,06,05,17,10,23.20
2009,06,05,17,11,23.30
2009,06,05,17,12,23.30
2009,06,05,17,13,23.30
2009,06,05,17,14,23.30
2009,06,05,17,15,23.30
2009,06,05,17,16,23.40
2009,06,05,17,17,23.50
2009,06,05,17,18,23.60
2009,06,05,17,19,23.60